Change the Weather History Date:

Saturday, January 19, 2013

  Actual Average Record
Temperature  
Mean Temperature 40 °F -  
Max Temperature 46 °F 31 °F 48 °F (2006)
Min Temperature 33 °F 17 °F -2 °F (1997)
Degree Days  
Heating Degree Days 26    
Moisture  
Dew Point 28 °F    
Average Humidity 57    
Maximum Humidity 66    
Minimum Humidity 41    
Precipitation  
Precipitation 0.00 in 0.07 in - ()
Sea Level Pressure  
Sea Level Pressure 29.87 in    
Wind  
Wind Speed 18 mph ()    
Max Wind Speed 30 mph    
Max Gust Speed 38 mph    
Visibility 15.0 miles    
Events      
Averages and records for this station are not official NWS values.
T = Trace of Precipitation, MM = Missing Value Source: Averaged Metar Reports

Daily Weather History Graph

Daily Weather History Graph

Search for Another Location

Airport or City:

Trip Planner

Search our weather history database for the weather conditions in past years. The results will help you decide how hot, cold, wet, or windy it might be!

Date:

Astronomy

Jan. 19, 2013 Rise Set
Actual Time 7:55 AM EST 5:29 PM EST
Civil Twilight 7:25 AM EST 6:00 PM EST
Nautical Twilight 6:50 AM EST 6:34 PM EST
Astronomical Twilight 6:17 AM EST 7:08 PM EST
Moon 11:56 AM EST (1/19) 1:27 AM EST (1/19)
Length of Visible Light 10h 35m
Length of Day
9h 34m
First Quarter, 57% of the Moon is Illuminated
Jan 19
First Quarter
Jan 26
Full
Feb 3
Last Quarter
Feb 10
New
Feb 17
First Quarter

Hourly Weather History & Observations

Time (EST) Temp. Windchill Dew Point Humidity Pressure Visibility Wind Dir Wind Speed Gust Speed Precip Events Conditions
12:00 AM 35.6 °F 24.0 °F 21.2 °F 56% 30.01 in 15.0 mi SW 23.0 mph - N/A   Clear
1:00 AM 36 °F - 22 °F 45% 29.99 in 15 mi SW 20.7 mph - -   Partly Cloudy
1:00 AM 35.6 °F 24.5 °F 23.0 °F 60% 29.99 in 15.0 mi SW 20.7 mph 28.8 mph N/A   Clear
2:00 AM 37.4 °F 26.6 °F 23.0 °F 56% 29.98 in 15.0 mi SW 21.9 mph - N/A   Clear
3:00 AM 37.4 °F 27.2 °F 23.0 °F 56% 29.97 in 15.0 mi SW 19.6 mph - N/A   Clear
4:00 AM 37.4 °F 27.5 °F 24.8 °F 60% 29.97 in 15.0 mi SW 18.4 mph - N/A   Clear
5:00 AM 37.4 °F 27.5 °F 24.8 °F 60% 29.96 in 15.0 mi SW 18.4 mph 24.2 mph N/A   Clear
6:00 AM 37.4 °F 26.6 °F 24.8 °F 60% 29.96 in 15.0 mi SW 21.9 mph - N/A   Clear
7:00 AM 37 °F - 24 °F 48% 29.96 in 15 mi SW 17.3 mph - -   Clear
7:00 AM 37.4 °F 27.8 °F 24.8 °F 60% 29.96 in 15.0 mi SW 17.3 mph 23.0 mph N/A   Scattered Clouds
8:00 AM 37.4 °F 28.5 °F 24.8 °F 60% 29.96 in 15.0 mi SW 15.0 mph 21.9 mph N/A   Mostly Cloudy
9:00 AM 39.2 °F 29.8 °F 24.8 °F 56% 29.97 in 15.0 mi SW 18.4 mph - N/A   Mostly Cloudy
10:00 AM 39.2 °F 29.6 °F 26.6 °F 61% 29.98 in 15.0 mi SW 19.6 mph - N/A   Mostly Cloudy
11:00 AM 41.0 °F 31.6 °F 26.6 °F 57% 29.96 in 15.0 mi SW 20.7 mph - N/A   Mostly Cloudy
12:00 PM 42.8 °F 35.4 °F 28.4 °F 57% 29.92 in 15.0 mi SW 15.0 mph 24.2 mph N/A   Mostly Cloudy
1:00 PM 45 °F - 29 °F 41% 29.86 in 15 mi SW 19.6 mph - -   Scattered Clouds
1:00 PM 44.6 °F 35.9 °F 28.4 °F 53% 29.86 in 15.0 mi SW 23.0 mph - N/A   Mostly Cloudy
2:00 PM 44.6 °F 37.2 °F 30.2 °F 57% 29.83 in 15.0 mi SSW 17.3 mph 23.0 mph N/A   Mostly Cloudy
3:00 PM 46.4 °F 39.2 °F 30.2 °F 53% 29.81 in 15.0 mi SW 18.4 mph 25.3 mph N/A   Mostly Cloudy
4:00 PM 44.6 °F 37.2 °F 32.0 °F 61% 29.77 in 15.0 mi SW 17.3 mph - N/A   Mostly Cloudy
5:00 PM 44.6 °F 37.8 °F 32.0 °F 61% 29.76 in 15.0 mi SW 15.0 mph 21.9 mph N/A   Mostly Cloudy
6:00 PM 44.6 °F 38.8 °F 32.0 °F 61% 29.76 in 15.0 mi SW 11.5 mph - N/A   Overcast
7:00 PM 46 °F - 32 °F 46% 29.73 in 15 mi SW 21.9 mph - -   Overcast
7:00 PM 46.4 °F 38.3 °F 32.0 °F 57% 29.73 in 15.0 mi SW 23.0 mph 29.9 mph N/A   Overcast
7:35 PM - - - N/A% - 15.0 mi SW 26.5 mph - N/A   Unknown
8:00 PM 46.4 °F 37.2 °F 32.0 °F 57% 29.72 in 15.0 mi SW 29.9 mph 38.0 mph N/A   Unknown
8:48 PM - - - N/A% - 15.0 mi SW 26.5 mph 32.2 mph N/A   Mostly Cloudy
9:00 PM 46.4 °F 37.7 °F 32.0 °F 57% 29.66 in 15.0 mi SW 26.5 mph 38.0 mph N/A   Scattered Clouds
10:00 PM 44.6 °F 35.5 °F 33.8 °F 66% 29.64 in 15.0 mi SW 25.3 mph 35.7 mph N/A   Partly Cloudy
11:00 PM 44.6 °F 36.4 °F 33.8 °F 66% 29.62 in 15.0 mi WSW 20.7 mph 27.6 mph N/A   Partly Cloudy